Weather History for Marshfield, WI

Change the Weather History Date:

Friday, November 25, 2011

  Actual Average Record
Temperature  
Mean Temperature 46 °F -  
Max Temperature 50 °F 35 °F 55 °F (1988)
Min Temperature 43 °F 20 °F -15 °F (1950)
Degree Days  
Heating Degree Days 18    
Moisture  
Dew Point 41 °F    
Average Humidity 80    
Maximum Humidity 93    
Minimum Humidity 73    
Precipitation  
Precipitation 0.00 in - - ()
Sea Level Pressure  
Sea Level Pressure 29.77 in    
Wind  
Wind Speed 8 mph (SSW)    
Max Wind Speed 13 mph    
Max Gust Speed 20 mph    
Visibility 8 miles    
Events      
Averages and records for this station are not official NWS values.
T = Trace of Precipitation, MM = Missing Value Source: NWS Daily Summary

Daily Weather History Graph

Daily Weather History Graph

Search for Another Location

Airport:

Trip Planner

Search our weather history database for the weather conditions in past years. The results will help you decide how hot, cold, wet, or windy it might be!

Date:

Astronomy

Nov. 25, 2011 Rise Set
Actual Time 7:10 AM CST 4:24 PM CST
Civil Twilight 6:37 AM CST 4:57 PM CST
Nautical Twilight 6:01 AM CST 5:33 PM CST
Astronomical Twilight 5:26 AM CST 6:08 PM CST
Moon 7:40 AM CST (11/25) 4:50 PM CST (11/25)
Length of Visible Light 10h 19m
Length of Day
9h 14m
New Moon, 0% of the Moon is Illuminated
Nov 25
New Moon
Dec 2
First Quarter
Dec 10
Full
Dec 17
Last Quarter
Dec 24
New

Hourly Weather History & Observations

Time (CST) Temp. Windchill Dew Point Humidity Pressure Visibility Wind Dir Wind Speed Gust Speed Precip Events Conditions
12:54 AM 46.0 °F 41.4 °F 39.0 °F 76% 29.78 in 10.0 mi SSW 9.2 mph - N/A   Clear
1:54 AM 46.9 °F - 39.0 °F 74% 29.77 in 10.0 mi SSW 9.2 mph - N/A   Clear
2:54 AM 46.0 °F 41.9 °F 37.9 °F 73% 29.77 in 10.0 mi SSW 8.1 mph - N/A   Clear
5:54 AM 43.0 °F 39.5 °F 37.0 °F 80% 29.77 in 10.0 mi South 5.8 mph - N/A   Clear
6:54 AM 43.0 °F 38.8 °F 37.0 °F 80% 29.78 in 10.0 mi SSW 6.9 mph - N/A   Clear
7:54 AM 45.0 °F 41.2 °F 39.0 °F 80% 29.78 in 10.0 mi SSW 6.9 mph - N/A   Clear
8:54 AM 48.0 °F - 39.9 °F 74% 29.77 in 10.0 mi South 10.4 mph - N/A   Clear
9:42 AM 48.2 °F - 41.0 °F 76% 29.76 in 10.0 mi SW 10.4 mph 19.6 mph N/A   Mostly Cloudy
9:54 AM 48.9 °F - 41.0 °F 74% 29.78 in 10.0 mi SSW 12.7 mph - N/A   Overcast
10:54 AM 50.0 °F - 42.1 °F 74% 29.77 in 10.0 mi SW 11.5 mph 19.6 mph N/A   Overcast
11:54 AM 50.0 °F - 42.1 °F 74% 29.75 in 10.0 mi WSW 8.1 mph - N/A   Overcast
12:54 PM 50.0 °F - 42.1 °F 74% 29.75 in 10.0 mi SW 9.2 mph - N/A   Overcast
1:54 PM 50.0 °F - 42.1 °F 74% 29.75 in 10.0 mi SW 9.2 mph - N/A   Overcast
3:54 PM 48.9 °F - 42.1 °F 77% 29.76 in 9.0 mi South 10.4 mph - N/A   Overcast
4:54 PM 48.9 °F - 42.1 °F 77% 29.76 in 9.0 mi South 6.9 mph - N/A   Overcast
5:54 PM 48.9 °F - 42.1 °F 77% 29.78 in 9.0 mi SSW 8.1 mph - N/A   Overcast
6:17 PM 48.2 °F - 42.8 °F 82% 29.76 in 9.0 mi SSW 9.2 mph - N/A   Overcast
6:54 PM 48.0 °F - 42.1 °F 80% 29.79 in 8.0 mi SSW 12.7 mph - N/A   Overcast
7:54 PM 46.9 °F - 42.1 °F 83% 29.80 in 8.0 mi South 5.8 mph - N/A   Overcast
8:54 PM 46.0 °F 42.5 °F 42.1 °F 86% 29.80 in 7.0 mi South 6.9 mph - 0.00 in   Overcast
9:54 PM 46.0 °F 42.5 °F 42.1 °F 86% 29.81 in 7.0 mi South 6.9 mph - N/A   Overcast
10:10 PM 46.4 °F 42.9 °F 42.8 °F 87% 29.79 in 6.0 mi South 6.9 mph - N/A   Overcast
10:54 PM 46.0 °F 43.9 °F 43.0 °F 89% 29.79 in 3.0 mi SSE 4.6 mph - N/A   Overcast
11:09 PM 44.6 °F 42.2 °F 42.8 °F 93% 29.77 in 2.5 mi SE 4.6 mph - N/A   Overcast
11:29 PM 44.6 °F 42.2 °F 42.8 °F 93% 29.77 in 3.0 mi SE 4.6 mph - N/A   Overcast